| time (UTC) | temp F | wind direction | speed knots | gust knots | rain 1hr in | rain 24hr in | rain mn in | humidity % | barometer mb |
| 20260504185833 | 77 | 237 | 3.5 | 11.3 | 0.00 | 0.00 | 0.00 | 40 | 1013.5 |
| 20260504185152 | 79 | 247 | 5.2 | 11.3 | 0.00 | 0.00 | 0.00 | 36 | 1013.5 |
| 20260504183617 | 78 | 239 | 7.0 | 12.2 | 0.00 | 0.00 | 0.00 | 36 | 1013.5 |
| 20260504182513 | 78 | 241 | 3.5 | 13.9 | 0.00 | 0.00 | 0.00 | 39 | 1013.5 |
| 20260504182045 | 79 | 260 | 5.2 | 13.9 | 0.00 | 0.00 | 0.00 | 37 | 1013.8 |
| 20260504181406 | 78 | 256 | 6.1 | 12.2 | 0.00 | 0.00 | 0.00 | 40 | 1013.5 |
| 20260504174512 | 76 | 283 | 5.2 | 13.9 | 0.00 | 0.00 | 0.00 | 41 | 1013.8 |
| 20260504173153 | 76 | 230 | 7.8 | 13.9 | 0.00 | 0.00 | 0.00 | 38 | 1014.2 |
| 20260504172939 | 77 | 285 | 7.0 | 11.3 | 0.00 | 0.00 | 0.00 | 40 | 1014.2 |
| 20260504171832 | 76 | 268 | 5.2 | 13.9 | 0.00 | 0.00 | 0.00 | 40 | 1014.5 |
| 20260504170722 | 76 | 290 | 7.8 | 13.0 | 0.00 | 0.00 | 0.00 | 41 | 1014.5 |
| 20260504160257 | 73 | 283 | 7.0 | 12.2 | 0.00 | 0.00 | 0.00 | 46 | 1015.6 |
| 20260504150513 | 71 | 299 | 6.1 | 10.4 | 0.00 | 0.00 | 0.00 | 50 | 1015.6 |
| 20260504141152 | 67 | 267 | 5.2 | 9.6 | 0.00 | 0.00 | 0.00 | 54 | 1015.9 |
| 20260504140937 | 67 | 292 | 6.1 | 9.6 | 0.00 | 0.00 | 0.00 | 54 | 1015.9 |
| 20260504130512 | 59 | 263 | 0.0 | 0.9 | 0.00 | 0.00 | 0.00 | 70 | 1016.2 |
| 20260504110512 | 44 | 358 | 0.0 | 1.7 | 0.00 | 0.00 | 0.00 | 97 | 1015.6 |
| 20260504100512 | 45 | 4 | 0.0 | 0.9 | 0.00 | 0.00 | 0.00 | 96 | 1015.2 |
| 20260504081616 | 46 | 69 | 0.9 | 0.9 | 0.00 | 0.00 | 0.00 | 94 | 1015.2 |
| 20260504080723 | 46 | 134 | 0.0 | 1.7 | 0.00 | 0.00 | 0.00 | 95 | 1015.2 |
| 20260504050725 | 49 | 67 | 0.0 | 0.9 | 0.00 | 0.00 | 0.00 | 87 | 1016.6 |
| 20260504045151 | 49 | 355 | 0.9 | 1.7 | 0.00 | 0.00 | 0.00 | 85 | 1016.6 |
| 20260504044512 | 49 | 297 | 0.0 | 0.9 | 0.00 | 0.00 | 0.00 | 85 | 1016.9 |
| 20260504044043 | 50 | 21 | 0.9 | 0.9 | 0.00 | 0.00 | 0.00 | 84 | 1016.9 |
| 20260504043151 | 50 | 31 | 0.9 | 0.9 | 0.00 | 0.00 | 0.00 | 83 | 1016.9 |
| 20260504041831 | 50 | 161 | 0.9 | 1.7 | 0.00 | 0.00 | 0.00 | 86 | 1016.9 |
| 20260504041613 | 50 | 343 | 0.9 | 0.9 | 0.00 | 0.00 | 0.00 | 83 | 1016.9 |
| 20260504040934 | 51 | 360 | 0.9 | 0.9 | 0.00 | 0.00 | 0.00 | 81 | 1016.9 |
| 20260504040255 | 51 | 100 | 0.0 | 0.9 | 0.00 | 0.00 | 0.00 | 79 | 1016.9 |
| 20260504035402 | 51 | 70 | 0.0 | 1.7 | 0.00 | 0.00 | 0.00 | 79 | 1016.9 |
| 20260504033832 | 53 | 15 | 0.9 | 1.7 | 0.00 | 0.00 | 0.00 | 73 | 1016.9 |
| 20260504033404 | 54 | 293 | 0.9 | 1.7 | 0.00 | 0.00 | 0.00 | 69 | 1016.9 |
| 20260504031831 | 55 | 267 | 0.9 | 0.9 | 0.00 | 0.00 | 0.00 | 65 | 1016.9 |
| 20260504031151 | 55 | 240 | 0.9 | 1.7 | 0.00 | 0.00 | 0.00 | 64 | 1016.9 |
| 20260504030043 | 56 | 206 | 0.9 | 1.7 | 0.00 | 0.00 | 0.00 | 66 | 1016.9 |
| 20260504025151 | 57 | 182 | 0.9 | 1.7 | 0.00 | 0.00 | 0.00 | 64 | 1017.3 |
| 20260504024511 | 57 | 168 | 0.9 | 1.7 | 0.00 | 0.00 | 0.00 | 63 | 1016.9 |
| 20260504023151 | 57 | 206 | 0.9 | 1.7 | 0.00 | 0.00 | 0.00 | 63 | 1016.9 |
| 20260504022511 | 57 | 203 | 0.9 | 1.7 | 0.00 | 0.00 | 0.00 | 63 | 1017.3 |
| 20260504022254 | 57 | 206 | 0.9 | 1.7 | 0.00 | 0.00 | 0.00 | 62 | 1017.3 |
| 20260504021151 | 57 | 55 | 0.0 | 0.9 | 0.00 | 0.00 | 0.00 | 63 | 1017.3 |
| 20260504020043 | 59 | 335 | 0.0 | 0.9 | 0.00 | 0.00 | 0.00 | 56 | 1016.9 |
| 20260504015830 | 60 | 206 | 0.0 | 0.9 | 0.00 | 0.00 | 0.00 | 58 | 1016.9 |
| 20260504013829 | 61 | 210 | 0.9 | 1.7 | 0.00 | 0.00 | 0.00 | 53 | 1016.9 |
| 20260504012510 | 62 | 203 | 0.9 | 1.7 | 0.00 | 0.00 | 0.00 | 49 | 1016.6 |
| 20260504011829 | 62 | 196 | 0.9 | 1.7 | 0.00 | 0.00 | 0.00 | 48 | 1016.6 |
| 20260504010723 | 63 | 197 | 0.9 | 1.7 | 0.00 | 0.00 | 0.00 | 47 | 1016.6 |
| 20260504005829 | 64 | 202 | 0.9 | 2.6 | 0.00 | 0.00 | 0.00 | 46 | 1016.6 |
| 20260504005359 | 64 | 215 | 0.9 | 2.6 | 0.00 | 0.00 | 0.00 | 43 | 1016.6 |
| 20260504004509 | 64 | 218 | 0.9 | 3.5 | 0.00 | 0.00 | 0.00 | 42 | 1016.6 |
| 20260504004254 | 65 | 215 | 1.7 | 3.5 | 0.00 | 0.00 | 0.00 | 41 | 1016.6 |
| 20260504003149 | 65 | 230 | 1.7 | 3.5 | 0.00 | 0.00 | 0.00 | 41 | 1016.2 |
| 20260504002722 | 66 | 219 | 1.7 | 3.5 | 0.00 | 0.00 | 0.00 | 39 | 1016.2 |
| 20260504000932 | 68 | 246 | 2.6 | 4.3 | 0.00 | 0.00 | 0.00 | 37 | 1016.6 |
| 20260504000040 | 68 | 233 | 2.6 | 6.1 | 0.00 | 0.00 | 0.00 | 36 | 1016.6 |
| 20260503235613 | 68 | 215 | 2.6 | 6.1 | 0.00 | 0.00 | 0.00 | 36 | 1016.6 |
| 20260503234934 | 69 | 244 | 2.6 | 6.1 | 0.00 | 0.00 | 0.00 | 35 | 1016.6 |
| 20260503232510 | 70 | 277 | 3.5 | 5.2 | 0.00 | 0.00 | 0.00 | 34 | 1016.9 |
| 20260503232257 | 69 | 268 | 2.6 | 6.1 | 0.00 | 0.00 | 0.00 | 32 | 1016.9 |
| 20260503231612 | 69 | 210 | 1.7 | 8.7 | 0.00 | 0.00 | 0.00 | 32 | 1016.9 |
| 20260503230510 | 70 | 299 | 5.2 | 8.7 | 0.00 | 0.00 | 0.00 | 32 | 1016.9 |
| 20260503230040 | 70 | 246 | 3.5 | 8.7 | 0.00 | 0.00 | 0.00 | 31 | 1016.9 |
| 20260503224721 | 70 | 304 | 7.0 | 8.7 | 0.00 | 0.00 | 0.00 | 30 | 1016.9 |
| 20260503223616 | 70 | 314 | 4.3 | 7.0 | 0.00 | 0.00 | 0.00 | 28 | 1017.3 |
| 20260503222510 | 70 | 336 | 4.3 | 8.7 | 0.00 | 0.00 | 0.00 | 29 | 1017.3 |
| 20260503221830 | 71 | 306 | 5.2 | 8.7 | 0.00 | 0.00 | 0.00 | 28 | 1017.3 |
| 20260503221149 | 70 | 298 | 2.6 | 6.1 | 0.00 | 0.00 | 0.00 | 27 | 1017.3 |
| 20260503220509 | 70 | 259 | 3.5 | 7.0 | 0.00 | 0.00 | 0.00 | 29 | 1017.6 |
| 20260503220041 | 70 | 273 | 2.6 | 7.8 | 0.00 | 0.00 | 0.00 | 29 | 1017.6 |
| 20260503215402 | 70 | 259 | 2.6 | 8.7 | 0.00 | 0.00 | 0.00 | 28 | 1017.6 |
| 20260503214508 | 70 | 297 | 5.2 | 9.6 | 0.00 | 0.00 | 0.00 | 27 | 1017.6 |
| 20260503213145 | 70 | 304 | 7.8 | 13.0 | 0.00 | 0.00 | 0.00 | 29 | 1018.0 |
| 20260503211828 | 70 | 328 | 4.3 | 10.4 | 0.00 | 0.00 | 0.00 | 27 | 1018.0 |
| 20260503210934 | 69 | 260 | 5.2 | 9.6 | 0.00 | 0.00 | 0.00 | 28 | 1018.0 |
| 20260503205148 | 69 | 317 | 7.0 | 12.2 | 0.00 | 0.00 | 0.00 | 28 | 1018.3 |
| 20260503204931 | 69 | 307 | 7.8 | 12.2 | 0.00 | 0.00 | 0.00 | 28 | 1018.3 |
| 20260503203612 | 69 | 308 | 4.3 | 10.4 | 0.00 | 0.00 | 0.00 | 29 | 1018.7 |
| 20260503202720 | 69 | 325 | 6.1 | 10.4 | 0.00 | 0.00 | 0.00 | 30 | 1018.7 |
| 20260503201148 | 68 | 284 | 5.2 | 13.0 | 0.00 | 0.00 | 0.00 | 30 | 1019.0 |
| 20260503195829 | 69 | 274 | 3.5 | 7.8 | 0.00 | 0.00 | 0.00 | 29 | 1019.3 |
| 20260503195616 | 68 | 308 | 4.3 | 11.3 | 0.00 | 0.00 | 0.00 | 29 | 1019.7 |
| 20260503194723 | 69 | 280 | 3.5 | 8.7 | 0.00 | 0.00 | 0.00 | 32 | 1019.7 |
| 20260503194039 | 69 | 225 | 2.6 | 8.7 | 0.00 | 0.00 | 0.00 | 30 | 1019.7 |
| 20260503193613 | 68 | 230 | 2.6 | 10.4 | 0.00 | 0.00 | 0.00 | 32 | 1019.7 |
| 20260503192933 | 68 | 321 | 6.1 | 10.4 | 0.00 | 0.00 | 0.00 | 29 | 1020.0 |
| 20260503191149 | 67 | 314 | 7.0 | 12.2 | 0.00 | 0.00 | 0.00 | 28 | 1020.4 |
| 20260503190510 | 67 | 326 | 6.1 | 13.0 | 0.00 | 0.00 | 0.00 | 29 | 1020.4 |